Regional Weather Roundup
Issued by NWS Green Bay, WI

Home | Current Version | Previous Version | Text Only | Print | Product List | Glossary On
Versions: 1 2 3 4 5 6 7 8 9 10 11 12 13 14 15 16 17 18 19 20 21 22 23 24 25 26 27 28 29 30 31 32 33 34 35 36 37 38 39 40 41 42 43 44 45 46 47 48 49 50
000
ASUS43 KGRB 202210
RWRGRB

NORTH-CENTRAL AND NORTHEAST WISCONSIN REGIONAL WEATHER ROUNDUP
NATIONAL WEATHER SERVICE GREEN BAY WI
400 PM CST THU NOV 20 2014

WIZ005-009-010>012-018-019-202300-
NORTH CENTRAL WISCONSIN

CITY           SKY/WX    TMP DP  RH WIND       PRES   REMARKS
IRONWOOD       CLOUDY     9   7  92 W14       29.99R VSB 3/4 WCI  -8
MANITOWISH WTR MOCLDY     7  -3  64 W10       29.99R WCI  -8
ARBOR VITAE    CLEAR     10  -1  63 NW7G17    29.99R WCI  -1
EAGLE RIVER    PTCLDY     8  -4  58 W10G18    29.97R WCI  -6
LAND O LAKES   MOCLDY     9   0  65 W6G16     29.97R WCI   0
RHINELANDER    MOCLDY     7  -2  66 W10       29.99R WCI  -8
PHILLIPS       PTCLDY    10  -1  63 NW6       30.02R WCI   0
ANTIGO         MOCLDY     8  -2  62 NW14      30.00R WCI  -8
TOMAHAWK       MOCLDY     9   0  65 W10G18    30.02R WCI  -5
MERRILL        CLOUDY    11   1  62 NW8G17    30.03R WCI   0
$$

WIZ013-073-202300-
NORTHEAST WISCONSIN

CITY           SKY/WX    TMP DP  RH WIND       PRES   REMARKS
IRON MOUNTAIN  LGT SNOW  11   5  77 NW9       29.97R WCI  -2
MARINETTE      PTCLDY    16   0  48 NW9G16    30.01R WCI   4
OCONTO         CLOUDY    17   2  53 W14G20    30.04R WCI   2
$$

WIZ017-030-035>037-045-202300-
CENTRAL WISCONSIN

CITY           SKY/WX    TMP DP  RH WIND       PRES   REMARKS
MEDFORD        MOCLDY    12   0  60 W10       30.02R WCI  -2
WAUSAU         CLOUDY    13   2  61 NW15      30.03R WCI  -3
MOSINEE        MOCLDY    12   3  67 W14G21    30.04R WCI  -3
MARSHFIELD     CLEAR     14   0  53 W12       30.05R WCI   0
WISC RAPIDS    CLEAR     15  -2  46 NW15G25   30.09R WCI   0
STEVENS POINT  CLOUDY    12  -1  54 W12       30.07R WCI  -2
WAUPACA        PTCLDY    17   1  48 NW10      30.08R WCI   5
SHAWANO        MOCLDY    17   3  55 NW9G16    30.05R WCI   5
CLINTONVILLE   CLOUDY    16   5  62 NW10      30.05R WCI   3
$$

WIZ038-039-048-051-202300-
FOX VALLEY

CITY           SKY/WX    TMP DP  RH WIND       PRES   REMARKS
NWS GREEN BAY  MOCLDY    16   4  59 NW13      30.06R WCI   2
APPLETON       MOCLDY    16   0  48 NW17      30.05R WCI   0
OSHKOSH        PTCLDY    17   2  51 NW12      30.06R WCI   4
FOND DU LAC    CLEAR     18   1  47 NW14      30.06R WCI   4
$$

WIZ022-050-052-202300-
EAST CENTRAL WISCONSIN

CITY           SKY/WX    TMP DP  RH WIND       PRES   REMARKS
STURGEON BAY   CLOUDY    18   0  45 NW10      30.00R WCI   6
MANITOWOC      PTCLDY    16   5  62 NW13      30.06R WCI   2
SHEBOYGAN      PTCLDY    18   2  49 W16G28    30.04R WCI   3
$$

LMZ563-521-522-541>543-202300-
LAKESHORE

STATION/POSITION TIME  TEMP    WIND        PRES    VSBY  WAVE
                       AIR SEA DIR/SP/G                  HT/PER
                 (UTC) (F)     (DEG/KT/KT) (MB)    (MI)  (FT/S)
SHEBOYGAN LKSHOR 2200   19 34  290/ 11/ 12 1019.2R
KEWAUNEE LKSHORE 2200   17     270/ 13/ 19 1015.9R
ALGOMA MARINA    2100          270/ 12/ 17   N/A
NORTHPORT PIER   2200   20     300/ 15/ 22 1015.6R
N MID LAKE BUOY  2200   20 42  290/ 16/ 19 1015.7R         3/ 4
SISTER BAY LKSHO 2100          320/ 17/ 23   N/A
CHAMBERS ISLAND  2200   19     280/  7/ 20 1015.9R
MENOMINEE LKSHOR 2200   17     280/  9/ 15 1016.9R
$$


USA.gov is the U.S. government's official web portal to all federal, state and local government web resources and services.